Time,TemperatureF,DewpointF,PressureIn,WindDirection,WindDirectionDegrees,WindSpeedMPH,WindSpeedGustMPH,Humidity,HourlyPrecipIn,Conditions,Clouds,dailyrainin,SoftwareType,DateUTC
2013-05-29 00:01:00,68.3,59.7,30.09,SE,137,0.0,0.0,74,0.00,CLR,,0.00,WeatherDisplay:10.37,2013-05-29 04:01:00,
2013-05-29 00:05:00,68.4,60.2,30.09,SE,137,0.0,0.0,75,0.00,CLR,,0.00,WeatherDisplay:10.37,2013-05-29 04:05:00,
2013-05-29 00:10:00,68.4,60.2,30.09,SE,137,0.0,0.0,75,0.00,CLR,,0.00,WeatherDisplay:10.37,2013-05-29 04:10:00,
2013-05-29 00:12:00,68.4,60.5,30.09,SE,137,0.0,0.0,76,0.00,CLR,,0.00,WeatherDisplay:10.37,2013-05-29 04:12:00,
2013-05-29 00:17:00,68.5,61.0,30.09,SE,137,0.0,0.0,77,0.00,CLR,,0.00,WeatherDisplay:10.37,2013-05-29 04:17:00,
2013-05-29 00:22:00,68.4,60.6,30.09,SE,137,0.0,0.0,76,0.00,CLR,,0.00,WeatherDisplay:10.37,2013-05-29 04:22:00,
2013-05-29 00:23:00,68.4,60.5,30.09,SE,137,0.0,0.0,76,0.00,CLR,,0.00,WeatherDisplay:10.37,2013-05-29 04:23:00,
2013-05-29 00:28:00,68.4,60.2,30.09,SE,137,0.0,0.0,75,0.00,CLR,,0.00,WeatherDisplay:10.37,2013-05-29 04:28:00,
2013-05-29 00:33:00,68.3,60.5,30.09,SE,137,0.0,0.0,76,0.00,CLR,,0.00,WeatherDisplay:10.37,2013-05-29 04:33:00,
2013-05-29 00:38:00,68.3,60.5,30.08,SE,137,0.0,0.0,76,0.00,CLR,,0.00,WeatherDisplay:10.37,2013-05-29 04:38:00,
2013-05-29 00:43:00,68.3,60.8,30.08,SE,137,0.0,0.0,77,0.00,CLR,,0.00,WeatherDisplay:10.37,2013-05-29 04:43:00,
2013-05-29 00:48:00,68.3,60.4,30.08,SE,137,0.0,0.0,76,0.00,CLR,,0.00,WeatherDisplay:10.37,2013-05-29 04:48:00,
2013-05-29 00:53:00,68.3,60.4,30.08,SE,137,0.0,0.0,76,0.00,CLR,,0.00,WeatherDisplay:10.37,2013-05-29 04:53:00,
2013-05-29 00:58:00,68.2,60.3,30.08,SE,137,0.0,0.0,76,0.00,CLR,,0.00,WeatherDisplay:10.37,2013-05-29 04:58:00,
2013-05-29 01:05:00,68.2,60.7,30.08,SE,137,0.0,1.0,77,0.00,CLR,,0.00,WeatherDisplay:10.37,2013-05-29 05:05:00,
2013-05-29 01:10:00,68.2,60.7,30.08,SE,143,0.0,2.0,77,0.00,CLR,,0.00,WeatherDisplay:10.37,2013-05-29 05:10:00,
2013-05-29 01:15:00,68.3,60.8,30.08,SSE,153,0.0,1.0,77,0.00,CLR,,0.00,WeatherDisplay:10.37,2013-05-29 05:15:00,
2013-05-29 01:20:00,68.4,60.5,30.08,SSE,158,0.0,0.0,76,0.00,CLR,,0.00,WeatherDisplay:10.37,2013-05-29 05:20:00,
2013-05-29 01:25:00,68.5,61.0,30.08,SSE,157,0.0,1.0,77,0.00,CLR,,0.00,WeatherDisplay:10.37,2013-05-29 05:25:00,
2013-05-29 01:30:00,68.6,60.7,30.08,SSE,155,0.0,1.0,76,0.00,CLR,,0.00,WeatherDisplay:10.37,2013-05-29 05:30:00,
2013-05-29 01:35:00,68.9,60.6,30.08,SE,140,0.0,1.0,75,0.00,CLR,,0.00,WeatherDisplay:10.37,2013-05-29 05:35:00,
2013-05-29 01:40:00,69.2,60.9,30.08,SE,137,0.0,2.0,75,0.00,CLR,,0.00,WeatherDisplay:10.37,2013-05-29 05:40:00,
2013-05-29 01:46:00,69.3,61.0,30.08,SE,132,0.0,0.0,75,0.00,CLR,,0.00,WeatherDisplay:10.37,2013-05-29 05:46:00,
2013-05-29 01:55:00,69.4,60.8,30.07,SE,138,0.0,5.0,74,0.00,CLR,,0.00,WeatherDisplay:10.37,2013-05-29 05:55:00,
2013-05-29 02:00:00,69.5,60.8,30.07,SE,140,0.0,2.0,74,0.00,CLR,,0.00,WeatherDisplay:10.37,2013-05-29 06:00:00,
2013-05-29 02:05:00,69.5,60.5,30.08,SE,142,1.0,3.0,73,0.00,CLR,,0.00,WeatherDisplay:10.37,2013-05-29 06:05:00,
2013-05-29 02:10:00,69.5,60.8,30.08,SE,143,0.0,1.0,74,0.00,CLR,,0.00,WeatherDisplay:10.37,2013-05-29 06:10:00,
2013-05-29 02:20:00,69.4,60.4,30.08,SE,143,1.0,4.0,73,0.00,CLR,,0.00,WeatherDisplay:10.37,2013-05-29 06:20:00,
2013-05-29 02:25:00,69.6,60.6,30.08,SE,142,1.0,5.0,73,0.00,CLR,,0.00,WeatherDisplay:10.37,2013-05-29 06:25:00,
2013-05-29 02:30:00,69.7,60.7,30.08,SE,140,0.0,0.0,73,0.00,CLR,,0.00,WeatherDisplay:10.37,2013-05-29 06:30:00,
2013-05-29 02:35:00,69.7,60.6,30.08,SE,134,0.0,2.0,73,0.00,CLR,,0.00,WeatherDisplay:10.37,2013-05-29 06:35:00,
2013-05-29 02:40:00,69.6,60.6,30.08,ESE,119,0.0,2.0,73,0.00,CLR,,0.00,WeatherDisplay:10.37,2013-05-29 06:40:00,
2013-05-29 02:45:00,69.5,60.5,30.08,SE,124,0.0,3.0,73,0.00,CLR,,0.00,WeatherDisplay:10.37,2013-05-29 06:45:00,
2013-05-29 02:50:00,69.5,60.5,30.09,SE,129,0.0,3.0,73,0.00,CLR,,0.00,WeatherDisplay:10.37,2013-05-29 06:50:00,
2013-05-29 03:00:00,69.3,60.7,30.09,SE,132,1.0,3.0,74,0.00,CLR,,0.00,WeatherDisplay:10.37,2013-05-29 07:00:00,
2013-05-29 03:05:00,69.2,60.6,30.09,SE,138,0.0,3.0,74,0.00,CLR,,0.00,WeatherDisplay:10.37,2013-05-29 07:05:00,
2013-05-29 03:10:00,69.1,60.5,30.09,SE,134,0.0,2.0,74,0.00,CLR,,0.00,WeatherDisplay:10.37,2013-05-29 07:10:00,
2013-05-29 03:15:00,69.0,60.4,30.09,ESE,122,0.0,1.0,74,0.00,CLR,,0.00,WeatherDisplay:10.37,2013-05-29 07:15:00,
2013-05-29 03:20:00,68.9,60.6,30.09,ESE,122,0.0,2.0,75,0.00,CLR,,0.00,WeatherDisplay:10.37,2013-05-29 07:20:00,
2013-05-29 03:25:00,68.7,60.8,30.10,SE,127,0.0,2.0,76,0.00,CLR,,0.00,WeatherDisplay:10.37,2013-05-29 07:25:00,
2013-05-29 03:30:00,68.6,61.1,30.09,SE,133,0.0,1.0,77,0.00,CLR,,0.00,WeatherDisplay:10.37,2013-05-29 07:30:00,
2013-05-29 03:35:00,68.4,60.9,30.09,SE,133,0.0,1.0,77,0.00,CLR,,0.00,WeatherDisplay:10.37,2013-05-29 07:35:00,
2013-05-29 03:40:00,68.2,60.7,30.09,SE,134,0.0,1.0,77,0.00,CLR,,0.00,WeatherDisplay:10.37,2013-05-29 07:40:00,
2013-05-29 03:45:00,68.0,60.5,30.09,SE,137,0.0,2.0,77,0.00,CLR,,0.00,WeatherDisplay:10.37,2013-05-29 07:45:00,
2013-05-29 03:50:00,67.9,60.4,30.10,SSE,148,0.0,2.0,77,0.00,CLR,,0.00,WeatherDisplay:10.37,2013-05-29 07:50:00,
2013-05-29 03:55:00,67.7,60.6,30.10,SSE,152,0.0,2.0,78,0.00,CLR,,0.00,WeatherDisplay:10.37,2013-05-29 07:55:00,
2013-05-29 04:00:00,67.6,60.5,30.10,SE,146,0.0,1.0,78,0.00,CLR,,0.00,WeatherDisplay:10.37,2013-05-29 08:00:00,
2013-05-29 04:05:00,67.6,60.9,30.10,SE,142,0.0,1.0,79,0.00,CLR,,0.00,WeatherDisplay:10.37,2013-05-29 08:05:00,
2013-05-29 04:10:00,67.5,60.7,30.10,SE,135,0.0,0.0,79,0.00,CLR,,0.00,WeatherDisplay:10.37,2013-05-29 08:10:00,
2013-05-29 04:15:00,67.3,60.6,30.10,SE,134,0.0,1.0,79,0.00,CLR,,0.00,WeatherDisplay:10.37,2013-05-29 08:15:00,
2013-05-29 04:20:00,67.1,60.4,30.10,SE,134,0.0,0.0,79,0.00,CLR,,0.00,WeatherDisplay:10.37,2013-05-29 08:20:00,
2013-05-29 04:25:00,67.0,61.0,30.11,SE,134,0.0,0.0,81,0.00,CLR,,0.00,WeatherDisplay:10.37,2013-05-29 08:25:00,
2013-05-29 04:30:00,66.8,60.8,30.11,SE,134,0.0,0.0,81,0.00,CLR,,0.00,WeatherDisplay:10.37,2013-05-29 08:30:00,
2013-05-29 04:40:00,66.5,60.5,30.11,SE,134,0.0,1.0,81,0.00,CLR,,0.00,WeatherDisplay:10.37,2013-05-29 08:40:00,
2013-05-29 04:50:00,66.3,60.3,30.11,SE,134,0.0,1.0,81,0.00,CLR,,0.00,WeatherDisplay:10.37,2013-05-29 08:50:00,
2013-05-29 04:55:00,66.2,60.5,30.11,SE,134,0.0,0.0,82,0.00,CLR,,0.00,WeatherDisplay:10.37,2013-05-29 08:55:00,
2013-05-29 05:00:00,66.1,60.4,30.11,SE,134,0.0,0.0,82,0.00,CLR,,0.00,WeatherDisplay:10.37,2013-05-29 09:00:00,
2013-05-29 05:05:00,66.0,60.3,30.11,SE,134,0.0,0.0,82,0.00,CLR,,0.00,WeatherDisplay:10.37,2013-05-29 09:05:00,
2013-05-29 05:10:00,65.9,60.2,30.11,SE,134,0.0,0.0,82,0.00,CLR,,0.00,WeatherDisplay:10.37,2013-05-29 09:10:00,
2013-05-29 05:15:00,65.8,60.2,30.12,SE,134,0.0,0.0,82,0.00,CLR,,0.00,WeatherDisplay:10.37,2013-05-29 09:15:00,
2013-05-29 05:20:00,65.7,60.1,30.11,SE,134,0.0,0.0,82,0.00,CLR,,0.00,WeatherDisplay:10.37,2013-05-29 09:20:00,
2013-05-29 05:25:00,65.5,60.2,30.12,SE,134,0.0,0.0,83,0.00,CLR,,0.00,WeatherDisplay:10.37,2013-05-29 09:25:00,
2013-05-29 05:30:00,65.4,60.1,30.12,SE,134,0.0,0.0,83,0.00,CLR,,0.00,WeatherDisplay:10.37,2013-05-29 09:30:00,
2013-05-29 05:40:00,65.2,59.9,30.12,SE,134,0.0,0.0,83,0.00,CLR,,0.00,WeatherDisplay:10.37,2013-05-29 09:40:00,
2013-05-29 05:45:00,65.1,59.8,30.12,SE,134,0.0,0.0,83,0.00,CLR,,0.00,WeatherDisplay:10.37,2013-05-29 09:45:00,
2013-05-29 05:50:00,65.0,60.0,30.12,SE,134,0.0,0.0,84,0.00,CLR,,0.00,WeatherDisplay:10.37,2013-05-29 09:50:00,
2013-05-29 05:55:00,64.9,59.9,30.13,SE,134,0.0,0.0,84,0.00,CLR,,0.00,WeatherDisplay:10.37,2013-05-29 09:55:00,
2013-05-29 06:00:00,64.8,59.9,30.13,SE,134,0.0,0.0,84,0.00,CLR,,0.00,WeatherDisplay:10.37,2013-05-29 10:00:00,
2013-05-29 06:05:00,64.7,59.7,30.13,SE,134,0.0,0.0,84,0.00,CLR,,0.00,WeatherDisplay:10.37,2013-05-29 10:05:00,
2013-05-29 06:10:00,64.5,59.8,30.13,SE,134,0.0,0.0,85,0.00,CLR,,0.00,WeatherDisplay:10.37,2013-05-29 10:10:00,
2013-05-29 06:15:00,64.2,59.6,30.13,SE,134,0.0,0.0,85,0.00,CLR,,0.00,WeatherDisplay:10.37,2013-05-29 10:15:00,
2013-05-29 06:20:00,64.1,59.8,30.13,SE,134,0.0,0.0,86,0.00,CLR,,0.00,WeatherDisplay:10.37,2013-05-29 10:20:00,
2013-05-29 06:25:00,64.0,59.7,30.13,SE,134,0.0,0.0,86,0.00,CLR,,0.00,WeatherDisplay:10.37,2013-05-29 10:25:00,
2013-05-29 06:30:00,63.8,59.9,30.13,SE,134,0.0,0.0,87,0.00,CLR,,0.00,WeatherDisplay:10.37,2013-05-29 10:30:00,
2013-05-29 06:36:00,63.7,59.8,30.13,SE,134,0.0,0.0,87,0.00,CLR,,0.00,WeatherDisplay:10.37,2013-05-29 10:36:00,
2013-05-29 06:41:00,63.7,59.7,30.13,SE,134,0.0,0.0,87,0.00,CLR,,0.00,WeatherDisplay:10.37,2013-05-29 10:41:00,
2013-05-29 06:46:00,63.6,59.7,30.13,SE,134,0.0,0.0,87,0.00,CLR,,0.00,WeatherDisplay:10.37,2013-05-29 10:46:00,
2013-05-29 06:51:00,63.6,60.0,30.14,SE,134,0.0,0.0,88,0.00,CLR,,0.00,WeatherDisplay:10.37,2013-05-29 10:51:00,
2013-05-29 06:56:00,63.5,59.9,30.14,SE,134,0.0,0.0,88,0.00,CLR,,0.00,WeatherDisplay:10.37,2013-05-29 10:56:00,
2013-05-29 07:01:00,63.5,59.9,30.14,SE,134,0.0,0.0,88,0.00,CLR,,0.00,WeatherDisplay:10.37,2013-05-29 11:01:00,
2013-05-29 07:10:00,63.5,59.9,30.14,SE,134,0.0,0.0,88,0.00,CLR,,0.00,WeatherDisplay:10.37,2013-05-29 11:10:00,
2013-05-29 07:16:00,63.6,59.9,30.14,SE,134,0.0,0.0,88,0.00,FEW,,0.00,WeatherDisplay:10.37,2013-05-29 11:16:00,
2013-05-29 07:21:00,63.6,60.0,30.15,SE,134,0.0,0.0,88,0.00,FEW,,0.00,WeatherDisplay:10.37,2013-05-29 11:21:00,
2013-05-29 07:26:00,63.6,60.0,30.15,SE,134,0.0,0.0,88,0.00,FEW,,0.00,WeatherDisplay:10.37,2013-05-29 11:26:00,
2013-05-29 07:31:00,63.6,60.3,30.15,SE,134,0.0,0.0,89,0.00,SCT,,0.00,WeatherDisplay:10.37,2013-05-29 11:31:00,
2013-05-29 07:36:00,63.7,60.4,30.15,SE,134,0.0,0.0,89,0.00,SCT,,0.00,WeatherDisplay:10.37,2013-05-29 11:36:00,
2013-05-29 07:41:00,63.8,60.5,30.14,SE,134,0.0,0.0,89,0.00,FEW,,0.00,WeatherDisplay:10.37,2013-05-29 11:41:00,
2013-05-29 07:46:00,63.9,60.6,30.15,SE,134,0.0,0.0,89,0.00,FEW,,0.00,WeatherDisplay:10.37,2013-05-29 11:46:00,
2013-05-29 07:51:00,64.0,60.7,30.15,SE,134,0.0,0.0,89,0.00,FEW,,0.00,WeatherDisplay:10.37,2013-05-29 11:51:00,
2013-05-29 07:56:00,64.2,60.9,30.15,SE,134,0.0,0.0,89,0.00,FEW,,0.00,WeatherDisplay:10.37,2013-05-29 11:56:00,
2013-05-29 08:01:00,64.4,61.1,30.15,SE,134,0.0,0.0,89,0.00,FEW,,0.00,WeatherDisplay:10.37,2013-05-29 12:01:00,
2013-05-29 08:10:00,64.8,61.2,30.15,SE,134,0.0,1.0,88,0.00,FEW,,0.00,WeatherDisplay:10.37,2013-05-29 12:10:00,
2013-05-29 08:15:00,65.0,61.4,30.15,SE,134,0.0,1.0,88,0.00,FEW,,0.00,WeatherDisplay:10.37,2013-05-29 12:15:00,
2013-05-29 08:20:00,65.2,61.6,30.15,SE,134,0.0,0.0,88,0.00,FEW,,0.00,WeatherDisplay:10.37,2013-05-29 12:20:00,
2013-05-29 08:25:00,65.4,61.8,30.16,SE,134,0.0,1.0,88,0.00,FEW,,0.00,WeatherDisplay:10.37,2013-05-29 12:25:00,
2013-05-29 08:30:00,65.6,61.9,30.16,SE,134,0.0,0.0,88,0.00,FEW,,0.00,WeatherDisplay:10.37,2013-05-29 12:30:00,
2013-05-29 08:35:00,65.7,62.1,30.16,SE,134,0.0,0.0,88,0.00,OVC,,0.00,WeatherDisplay:10.37,2013-05-29 12:35:00,
2013-05-29 08:40:00,65.9,62.2,30.16,SE,132,0.0,1.0,88,0.00,OVC,,0.00,WeatherDisplay:10.37,2013-05-29 12:40:00,
2013-05-29 08:45:00,66.1,62.1,30.16,SE,138,0.0,2.0,87,0.00,OVC,,0.00,WeatherDisplay:10.37,2013-05-29 12:45:00,
2013-05-29 08:50:00,66.3,62.6,30.16,SE,144,0.0,2.0,88,0.00,OVC,,0.00,WeatherDisplay:10.37,2013-05-29 12:50:00,
2013-05-29 08:55:00,66.5,62.5,30.16,SSE,156,0.0,1.0,87,0.00,OVC,,0.00,WeatherDisplay:10.37,2013-05-29 12:55:00,
2013-05-29 09:00:00,66.6,62.6,30.17,SSE,156,0.0,2.0,87,0.00,OVC,,0.00,WeatherDisplay:10.37,2013-05-29 13:00:00,
2013-05-29 09:05:00,66.8,62.8,30.17,SSE,156,0.0,2.0,87,0.00,OVC,,0.00,WeatherDisplay:10.37,2013-05-29 13:05:00,
2013-05-29 09:10:00,66.9,62.6,30.17,SSE,156,0.0,2.0,86,0.00,OVC,,0.00,WeatherDisplay:10.37,2013-05-29 13:10:00,
2013-05-29 09:20:00,67.2,62.9,30.17,SE,126,0.0,1.0,86,0.00,BKN,,0.00,WeatherDisplay:10.37,2013-05-29 13:20:00,
2013-05-29 09:25:00,67.4,63.1,30.17,East,87,0.0,0.0,86,0.00,BKN,,0.00,WeatherDisplay:10.37,2013-05-29 13:25:00,
2013-05-29 09:30:00,67.6,63.3,30.17,East,80,0.0,2.0,86,0.00,BKN,,0.00,WeatherDisplay:10.37,2013-05-29 13:30:00,
2013-05-29 09:35:00,67.8,63.5,30.17,East,84,0.0,1.0,86,0.00,BKN,,0.00,WeatherDisplay:10.37,2013-05-29 13:35:00,
2013-05-29 09:40:00,68.0,63.3,30.17,SE,141,0.0,3.0,85,0.00,BKN,,0.00,WeatherDisplay:10.37,2013-05-29 13:40:00,
2013-05-29 09:45:00,68.2,63.5,30.17,East,88,1.0,3.0,85,0.00,SCT,,0.00,WeatherDisplay:10.37,2013-05-29 13:45:00,
2013-05-29 09:50:00,68.4,63.4,30.17,ENE,72,0.0,2.0,84,0.00,SCT,,0.00,WeatherDisplay:10.37,2013-05-29 13:50:00,
2013-05-29 09:55:00,68.5,63.5,30.17,East,97,0.0,0.0,84,0.00,BKN,,0.00,WeatherDisplay:10.37,2013-05-29 13:55:00,
2013-05-29 10:00:00,68.7,63.7,30.17,East,89,0.0,1.0,84,0.00,BKN,,0.00,WeatherDisplay:10.37,2013-05-29 14:00:00,
2013-05-29 10:05:00,68.9,63.5,30.17,ESE,115,0.0,3.0,83,0.00,BKN,,0.00,WeatherDisplay:10.37,2013-05-29 14:05:00,
2013-05-29 10:10:00,69.2,63.5,30.17,SE,142,0.0,3.0,82,0.00,BKN,,0.00,WeatherDisplay:10.37,2013-05-29 14:10:00,
2013-05-29 10:15:00,69.4,64.0,30.17,SE,127,1.0,2.0,83,0.00,BKN,,0.00,WeatherDisplay:10.37,2013-05-29 14:15:00,
2013-05-29 10:20:00,69.5,63.8,30.17,East,86,0.0,1.0,82,0.00,BKN,,0.00,WeatherDisplay:10.37,2013-05-29 14:20:00,
2013-05-29 10:25:00,69.7,64.0,30.17,East,92,0.0,1.0,82,0.00,BKN,,0.00,WeatherDisplay:10.37,2013-05-29 14:25:00,
2013-05-29 10:30:00,69.8,64.1,30.17,East,92,0.0,1.0,82,0.00,BKN,,0.00,WeatherDisplay:10.37,2013-05-29 14:30:00,
2013-05-29 10:40:00,70.0,63.9,30.17,East,92,0.0,0.0,81,0.00,BKN,,0.00,WeatherDisplay:10.37,2013-05-29 14:40:00,
2013-05-29 10:45:00,70.2,64.4,30.17,East,95,0.0,0.0,82,0.00,BKN,,0.00,WeatherDisplay:10.37,2013-05-29 14:45:00,
2013-05-29 10:50:00,70.4,64.3,30.18,East,92,1.0,2.0,81,0.00,BKN,,0.00,WeatherDisplay:10.37,2013-05-29 14:50:00,
2013-05-29 11:00:00,70.8,64.0,30.18,ENE,65,1.0,3.0,79,0.00,BKN,,0.00,WeatherDisplay:10.37,2013-05-29 15:00:00,
2013-05-29 11:05:00,71.0,64.1,30.18,East,79,1.0,2.0,79,0.00,OVC,,0.00,WeatherDisplay:10.37,2013-05-29 15:05:00,
2013-05-29 11:10:00,71.0,63.8,30.17,East,95,0.0,2.0,78,0.00,OVC,,0.00,WeatherDisplay:10.37,2013-05-29 15:10:00,
2013-05-29 11:15:00,71.2,64.4,30.17,SE,132,1.0,3.0,79,0.00,OVC,,0.00,WeatherDisplay:10.37,2013-05-29 15:15:00,
2013-05-29 11:20:00,71.4,64.2,30.17,SE,138,0.0,4.0,78,0.00,OVC,,0.00,WeatherDisplay:10.37,2013-05-29 15:20:00,
2013-05-29 11:30:00,71.8,63.9,30.17,SE,140,1.0,5.0,76,0.00,OVC,,0.00,WeatherDisplay:10.37,2013-05-29 15:30:00,
2013-05-29 11:40:00,72.4,64.0,30.17,SE,140,0.0,4.0,75,0.00,OVC,,0.00,WeatherDisplay:10.37,2013-05-29 15:40:00,
2013-05-29 11:45:00,72.6,64.9,30.17,ESE,118,1.0,2.0,77,0.00,BKN,,0.00,WeatherDisplay:10.37,2013-05-29 15:45:00,
2013-05-29 11:50:00,72.8,63.7,30.17,SE,138,1.0,3.0,73,0.00,BKN,,0.00,WeatherDisplay:10.37,2013-05-29 15:50:00,
2013-05-29 11:55:00,73.1,63.9,30.17,SSE,156,1.0,3.0,73,0.00,BKN,,0.00,WeatherDisplay:10.37,2013-05-29 15:55:00,
2013-05-29 12:00:00,73.4,64.2,30.17,SE,124,1.0,3.0,73,0.00,BKN,,0.00,WeatherDisplay:10.37,2013-05-29 16:00:00,
2013-05-29 12:05:00,73.7,64.1,30.17,East,94,0.0,3.0,72,0.00,BKN,,0.00,WeatherDisplay:10.37,2013-05-29 16:05:00,
2013-05-29 12:10:00,73.9,63.5,30.17,ESE,110,1.0,6.0,70,0.00,BKN,,0.00,WeatherDisplay:10.37,2013-05-29 16:10:00,
2013-05-29 12:15:00,74.3,63.8,30.17,East,100,0.0,3.0,70,0.00,BKN,,0.00,WeatherDisplay:10.37,2013-05-29 16:15:00,
2013-05-29 12:20:00,74.5,62.8,30.17,East,88,1.0,3.0,67,0.00,BKN,,0.00,WeatherDisplay:10.37,2013-05-29 16:20:00,
2013-05-29 12:25:00,74.9,62.7,30.17,SE,130,2.0,5.0,66,0.00,BKN,,0.00,WeatherDisplay:10.37,2013-05-29 16:25:00,
2013-05-29 12:30:00,75.3,64.0,30.17,ESE,119,1.0,2.0,68,0.00,BKN,,0.00,WeatherDisplay:10.37,2013-05-29 16:30:00,
2013-05-29 12:40:00,76.1,63.5,30.17,SSE,152,1.0,4.0,65,0.00,SCT,,0.00,WeatherDisplay:10.37,2013-05-29 16:40:00,
2013-05-29 12:45:00,76.6,63.5,30.17,SE,132,0.0,3.0,64,0.00,SCT,,0.00,WeatherDisplay:10.37,2013-05-29 16:45:00,
2013-05-29 12:50:00,76.8,62.3,30.17,ESE,102,1.0,3.0,61,0.00,SCT,,0.00,WeatherDisplay:10.37,2013-05-29 16:50:00,
2013-05-29 12:55:00,77.2,63.1,30.17,East,82,1.0,3.0,62,0.00,SCT,,0.00,WeatherDisplay:10.37,2013-05-29 16:55:00,
2013-05-29 13:00:00,77.6,63.1,30.17,ESE,102,1.0,4.0,61,0.00,SCT,,0.00,WeatherDisplay:10.37,2013-05-29 17:00:00,
2013-05-29 13:05:00,78.0,63.9,30.17,SE,138,1.0,3.0,62,0.00,SCT,,0.00,WeatherDisplay:10.37,2013-05-29 17:05:00,
2013-05-29 13:10:00,78.3,62.8,30.16,East,86,1.0,3.0,59,0.00,SCT,,0.00,WeatherDisplay:10.37,2013-05-29 17:10:00,
2013-05-29 13:15:00,78.8,63.2,30.16,East,80,0.0,2.0,59,0.00,SCT,,0.00,WeatherDisplay:10.37,2013-05-29 17:15:00,
2013-05-29 13:20:00,79.2,62.7,30.15,ENE,72,1.0,3.0,57,0.00,SCT,,0.00,WeatherDisplay:10.37,2013-05-29 17:20:00,
2013-05-29 13:30:00,80.4,62.7,30.15,ENE,67,1.0,3.0,55,0.00,SCT,,0.00,WeatherDisplay:10.37,2013-05-29 17:30:00,
2013-05-29 13:35:00,80.8,62.6,30.15,ENE,66,1.0,3.0,54,0.00,SCT,,0.00,WeatherDisplay:10.37,2013-05-29 17:35:00,
2013-05-29 13:40:00,81.4,63.6,30.15,ENE,61,1.0,2.0,55,0.00,SCT,,0.00,WeatherDisplay:10.37,2013-05-29 17:40:00,
2013-05-29 13:45:00,81.5,61.1,30.15,ESE,117,0.0,3.0,50,0.00,SCT,,0.00,WeatherDisplay:10.37,2013-05-29 17:45:00,
2013-05-29 13:50:00,81.8,61.4,30.15,ESE,109,2.0,4.0,50,0.00,SCT,,0.00,WeatherDisplay:10.37,2013-05-29 17:50:00,
2013-05-29 13:55:00,82.1,62.2,30.14,East,96,0.0,2.0,51,0.00,SCT,,0.00,WeatherDisplay:10.37,2013-05-29 17:55:00,
2013-05-29 14:00:00,82.7,62.7,30.14,East,101,1.0,3.0,51,0.00,SCT,,0.00,WeatherDisplay:10.37,2013-05-29 18:00:00,
2013-05-29 14:05:00,83.0,61.3,30.14,ENE,67,1.0,3.0,48,0.00,SCT,,0.00,WeatherDisplay:10.37,2013-05-29 18:05:00,
2013-05-29 14:10:00,82.9,62.4,30.14,ENE,78,1.0,3.0,50,0.00,SCT,,0.00,WeatherDisplay:10.37,2013-05-29 18:10:00,
2013-05-29 14:15:00,82.7,62.7,30.13,ESE,118,1.0,2.0,51,0.00,SCT,,0.00,WeatherDisplay:10.37,2013-05-29 18:15:00,
2013-05-29 14:20:00,82.3,62.4,30.13,ESE,123,0.0,6.0,51,0.00,SCT,,0.00,WeatherDisplay:10.37,2013-05-29 18:20:00,
2013-05-29 14:25:00,82.2,61.7,30.13,East,98,1.0,3.0,50,0.00,SCT,,0.00,WeatherDisplay:10.37,2013-05-29 18:25:00,
2013-05-29 14:30:00,82.2,62.3,30.12,ESE,123,1.0,4.0,51,0.00,SCT,,0.00,WeatherDisplay:10.37,2013-05-29 18:30:00,
2013-05-29 14:40:00,82.3,62.4,30.12,East,98,1.0,7.0,51,0.00,SCT,,0.00,WeatherDisplay:10.37,2013-05-29 18:40:00,
2013-05-29 14:50:00,82.2,61.7,30.12,ENE,60,1.0,7.0,50,0.00,SCT,,0.00,WeatherDisplay:10.37,2013-05-29 18:50:00,
2013-05-29 14:55:00,82.3,62.9,30.12,East,98,0.0,5.0,52,0.00,SCT,,0.00,WeatherDisplay:10.37,2013-05-29 18:55:00,
2013-05-29 15:00:00,82.1,62.7,30.12,East,100,1.0,5.0,52,0.00,SCT,,0.00,WeatherDisplay:10.37,2013-05-29 19:00:00,
2013-05-29 15:05:00,81.9,61.4,30.12,ESE,120,3.0,5.0,50,0.00,SCT,,0.00,WeatherDisplay:10.37,2013-05-29 19:05:00,
2013-05-29 15:10:00,82.1,60.4,30.12,SE,139,0.0,4.0,48,0.00,SCT,,0.00,WeatherDisplay:10.37,2013-05-29 19:10:00,
2013-05-29 15:15:00,82.3,62.9,30.11,ESE,102,2.0,4.0,52,0.00,FEW,,0.00,WeatherDisplay:10.37,2013-05-29 19:15:00,
2013-05-29 15:20:00,82.4,62.5,30.11,ENE,71,1.0,3.0,51,0.00,FEW,,0.00,WeatherDisplay:10.37,2013-05-29 19:20:00,
2013-05-29 15:25:00,82.4,63.0,30.11,East,89,1.0,7.0,52,0.00,FEW,,0.00,WeatherDisplay:10.37,2013-05-29 19:25:00,
2013-05-29 15:30:00,82.5,63.1,30.11,East,86,1.0,2.0,52,0.00,FEW,,0.00,WeatherDisplay:10.37,2013-05-29 19:30:00,
2013-05-29 15:35:00,82.5,63.1,30.11,East,97,1.0,6.0,52,0.00,FEW,,0.00,WeatherDisplay:10.37,2013-05-29 19:35:00,
2013-05-29 15:40:00,81.9,62.0,30.11,ESE,105,1.0,5.0,51,0.00,FEW,,0.00,WeatherDisplay:10.37,2013-05-29 19:40:00,
2013-05-29 15:50:00,81.1,63.4,30.11,ENE,62,2.0,4.0,55,0.00,FEW,,0.00,WeatherDisplay:10.37,2013-05-29 19:50:00,
2013-05-29 15:55:00,81.0,62.8,30.11,ESE,106,0.0,5.0,54,0.00,FEW,,0.00,WeatherDisplay:10.37,2013-05-29 19:55:00,
2013-05-29 16:00:00,81.3,64.1,30.10,SE,138,1.0,4.0,56,0.00,FEW,,0.00,WeatherDisplay:10.37,2013-05-29 20:00:00,
2013-05-29 16:05:00,81.8,63.5,30.10,East,93,2.0,5.0,54,0.00,FEW,,0.00,WeatherDisplay:10.37,2013-05-29 20:05:00,
2013-05-29 16:10:00,81.8,63.5,30.10,ENE,75,0.0,3.0,54,0.00,FEW,,0.00,WeatherDisplay:10.37,2013-05-29 20:10:00,
2013-05-29 16:15:00,81.7,64.0,30.10,East,97,1.0,4.0,55,0.00,BKN,,0.00,WeatherDisplay:10.37,2013-05-29 20:15:00,
2013-05-29 16:20:00,81.5,64.3,30.10,East,95,2.0,6.0,56,0.00,BKN,,0.00,WeatherDisplay:10.37,2013-05-29 20:20:00,
2013-05-29 16:30:00,81.2,64.0,30.10,SSE,160,3.0,7.0,56,0.00,BKN,,0.00,WeatherDisplay:10.37,2013-05-29 20:30:00,
2013-05-29 16:35:00,81.4,63.7,30.10,ESE,123,2.0,4.0,55,0.00,BKN,,0.00,WeatherDisplay:10.37,2013-05-29 20:35:00,
2013-05-29 16:40:00,81.4,63.7,30.09,ESE,103,0.0,5.0,55,0.00,BKN,,0.00,WeatherDisplay:10.37,2013-05-29 20:40:00,
2013-05-29 16:45:00,81.5,63.8,30.10,ESE,117,2.0,5.0,55,0.00,BKN,,0.00,WeatherDisplay:10.37,2013-05-29 20:45:00,
2013-05-29 16:50:00,81.4,63.2,30.10,SE,141,0.0,5.0,54,0.00,BKN,,0.00,WeatherDisplay:10.37,2013-05-29 20:50:00,
2013-05-29 16:55:00,81.2,63.5,30.09,SE,141,0.0,2.0,55,0.00,BKN,,0.00,WeatherDisplay:10.37,2013-05-29 20:55:00,
2013-05-29 17:00:00,81.1,62.4,30.09,SSE,153,2.0,7.0,53,0.00,BKN,,0.00,WeatherDisplay:10.37,2013-05-29 21:00:00,
2013-05-29 17:05:00,81.1,62.8,30.09,SE,125,1.0,7.0,54,0.00,BKN,,0.00,WeatherDisplay:10.37,2013-05-29 21:05:00,
2013-05-29 17:10:00,80.9,63.7,30.09,ESE,113,0.0,1.0,56,0.00,BKN,,0.00,WeatherDisplay:10.37,2013-05-29 21:10:00,
2013-05-29 17:15:00,80.8,63.6,30.10,SE,132,1.0,2.0,56,0.00,BKN,,0.00,WeatherDisplay:10.37,2013-05-29 21:15:00,
2013-05-29 17:20:00,80.6,63.5,30.09,East,94,0.0,0.0,56,0.00,BKN,,0.00,WeatherDisplay:10.37,2013-05-29 21:20:00,
2013-05-29 17:26:00,80.5,64.9,30.09,ENE,60,0.0,1.0,59,0.00,BKN,,0.00,WeatherDisplay:10.37,2013-05-29 21:26:00,
2013-05-29 17:31:00,80.5,63.8,30.09,SE,137,0.0,2.0,57,0.00,BKN,,0.00,WeatherDisplay:10.37,2013-05-29 21:31:00,
2013-05-29 17:36:00,80.4,63.8,30.09,SE,129,0.0,1.0,57,0.00,BKN,,0.00,WeatherDisplay:10.37,2013-05-29 21:36:00,
2013-05-29 17:41:00,80.2,63.6,30.09,ENE,77,1.0,2.0,57,0.00,BKN,,0.00,WeatherDisplay:10.37,2013-05-29 21:41:00,
2013-05-29 17:46:00,80.1,63.5,30.09,ESE,107,1.0,2.0,57,0.00,BKN,,0.00,WeatherDisplay:10.37,2013-05-29 21:46:00,
2013-05-29 17:51:00,80.1,64.0,30.09,ESE,123,0.0,2.0,58,0.00,BKN,,0.00,WeatherDisplay:10.37,2013-05-29 21:51:00,
2013-05-29 17:57:00,80.1,63.5,30.09,SE,132,2.0,5.0,57,0.00,BKN,,0.00,WeatherDisplay:10.37,2013-05-29 21:57:00,
2013-05-29 18:05:00,80.2,64.1,30.08,SSE,155,0.0,4.0,58,0.00,BKN,,0.00,WeatherDisplay:10.37,2013-05-29 22:05:00,
2013-05-29 18:10:00,79.8,63.2,30.08,SE,138,1.0,4.0,57,0.00,BKN,,0.00,WeatherDisplay:10.37,2013-05-29 22:10:00,
2013-05-29 18:15:00,79.7,64.1,30.08,SE,144,0.0,1.0,59,0.00,SCT,,0.00,WeatherDisplay:10.37,2013-05-29 22:15:00,
2013-05-29 18:20:00,79.5,63.9,30.08,SE,136,0.0,1.0,59,0.00,SCT,,0.00,WeatherDisplay:10.37,2013-05-29 22:20:00,
2013-05-29 18:25:00,79.5,63.9,30.08,SSE,147,0.0,2.0,59,0.00,SCT,,0.00,WeatherDisplay:10.37,2013-05-29 22:25:00,
2013-05-29 18:30:00,79.6,64.5,30.08,East,92,1.0,1.0,60,0.00,SCT,,0.00,WeatherDisplay:10.37,2013-05-29 22:30:00,
2013-05-29 18:35:00,79.7,64.1,30.08,ESE,102,1.0,1.0,59,0.00,SCT,,0.00,WeatherDisplay:10.37,2013-05-29 22:35:00,
2013-05-29 18:40:00,79.7,64.6,30.08,East,100,1.0,2.0,60,0.00,SCT,,0.00,WeatherDisplay:10.37,2013-05-29 22:40:00,
2013-05-29 18:45:00,79.5,63.9,30.08,ESE,105,2.0,5.0,59,0.00,SCT,,0.00,WeatherDisplay:10.37,2013-05-29 22:45:00,
2013-05-29 18:50:00,79.5,63.9,30.08,ESE,121,1.0,2.0,59,0.00,SCT,,0.00,WeatherDisplay:10.37,2013-05-29 22:50:00,
2013-05-29 18:56:00,79.3,63.7,30.07,East,87,0.0,1.0,59,0.00,SCT,,0.00,WeatherDisplay:10.37,2013-05-29 22:56:00,
2013-05-29 19:01:00,79.3,64.2,30.07,ESE,109,0.0,1.0,60,0.00,SCT,,0.00,WeatherDisplay:10.37,2013-05-29 23:01:00,
2013-05-29 19:10:00,79.2,63.6,30.08,SE,128,1.0,3.0,59,0.00,SCT,,0.00,WeatherDisplay:10.37,2013-05-29 23:10:00,
2013-05-29 19:16:00,79.3,63.7,30.07,ESE,118,1.0,2.0,59,0.00,SCT,,0.00,WeatherDisplay:10.37,2013-05-29 23:16:00,
2013-05-29 19:21:00,79.2,63.6,30.07,ESE,108,0.0,1.0,59,0.00,SCT,,0.00,WeatherDisplay:10.37,2013-05-29 23:21:00,
2013-05-29 19:26:00,79.1,64.0,30.07,SE,131,0.0,3.0,60,0.00,SCT,,0.00,WeatherDisplay:10.37,2013-05-29 23:26:00,
2013-05-29 19:31:00,79.1,64.0,30.08,SSE,155,0.0,1.0,60,0.00,SCT,,0.00,WeatherDisplay:10.37,2013-05-29 23:31:00,
2013-05-29 19:36:00,78.9,63.8,30.08,SE,144,0.0,0.0,60,0.00,SCT,,0.00,WeatherDisplay:10.37,2013-05-29 23:36:00,
2013-05-29 19:41:00,78.8,64.2,30.08,ESE,113,1.0,2.0,61,0.00,SCT,,0.00,WeatherDisplay:10.37,2013-05-29 23:41:00,
2013-05-29 19:46:00,78.6,64.5,30.08,East,82,0.0,1.0,62,0.00,SCT,,0.00,WeatherDisplay:10.37,2013-05-29 23:46:00,
2013-05-29 19:51:00,78.3,64.2,30.08,East,92,0.0,1.0,62,0.00,SCT,,0.00,WeatherDisplay:10.37,2013-05-29 23:51:00,
2013-05-29 19:56:00,78.1,64.0,30.08,ESE,106,0.0,1.0,62,0.00,SCT,,0.00,WeatherDisplay:10.37,2013-05-29 23:56:00,
2013-05-29 20:01:00,77.9,63.8,30.08,ESE,104,0.0,0.0,62,0.00,SCT,,0.00,WeatherDisplay:10.37,2013-05-30 00:01:00,
2013-05-29 20:10:00,77.6,64.0,30.08,SE,136,0.0,1.0,63,0.00,SCT,,0.00,WeatherDisplay:10.37,2013-05-30 00:10:00,
2013-05-29 20:15:00,77.4,63.8,30.08,ESE,107,0.0,0.0,63,0.00,FEW,,0.00,WeatherDisplay:10.37,2013-05-30 00:15:00,
2013-05-29 20:20:00,77.3,64.1,30.08,ENE,65,0.0,0.0,64,0.00,FEW,,0.00,WeatherDisplay:10.37,2013-05-30 00:20:00,
2013-05-29 20:25:00,77.1,64.0,30.08,ENE,70,0.0,0.0,64,0.00,FEW,,0.00,WeatherDisplay:10.37,2013-05-30 00:25:00,
2013-05-29 20:30:00,76.9,64.2,30.08,East,81,0.0,0.0,65,0.00,FEW,,0.00,WeatherDisplay:10.37,2013-05-30 00:30:00,
2013-05-29 20:35:00,76.7,64.0,30.08,East,86,0.0,0.0,65,0.00,FEW,,0.00,WeatherDisplay:10.37,2013-05-30 00:35:00,
2013-05-29 20:40:00,76.6,64.0,30.08,East,89,0.0,0.0,65,0.00,FEW,,0.00,WeatherDisplay:10.37,2013-05-30 00:40:00,
2013-05-29 20:45:00,76.4,63.8,30.08,East,90,0.0,0.0,65,0.00,FEW,,0.00,WeatherDisplay:10.37,2013-05-30 00:45:00,
2013-05-29 20:50:00,76.3,63.7,30.08,ESE,105,0.0,0.0,65,0.00,FEW,,0.00,WeatherDisplay:10.37,2013-05-30 00:50:00,
2013-05-29 20:55:00,76.2,64.0,30.08,SE,128,0.0,0.0,66,0.00,FEW,,0.00,WeatherDisplay:10.37,2013-05-30 00:55:00,
2013-05-29 21:00:00,76.1,63.9,30.08,SE,134,0.0,0.0,66,0.00,FEW,,0.00,WeatherDisplay:10.37,2013-05-30 01:00:00,
2013-05-29 21:05:00,75.9,63.8,30.08,SE,134,0.0,0.0,66,0.00,FEW,,0.00,WeatherDisplay:10.37,2013-05-30 01:05:00,
2013-05-29 21:10:00,75.7,63.5,30.08,SE,134,0.0,0.0,66,0.00,FEW,,0.00,WeatherDisplay:10.37,2013-05-30 01:10:00,
2013-05-29 21:15:00,75.5,63.8,30.08,SE,134,0.0,0.0,67,0.00,FEW,,0.00,WeatherDisplay:10.37,2013-05-30 01:15:00,
2013-05-29 21:20:00,75.3,63.6,30.08,SE,134,0.0,0.0,67,0.00,FEW,,0.00,WeatherDisplay:10.37,2013-05-30 01:20:00,
2013-05-29 21:25:00,75.1,63.4,30.08,SE,134,0.0,0.0,67,0.00,FEW,,0.00,WeatherDisplay:10.37,2013-05-30 01:25:00,
2013-05-29 21:30:00,75.0,63.3,30.08,SE,134,0.0,1.0,67,0.00,FEW,,0.00,WeatherDisplay:10.37,2013-05-30 01:30:00,
2013-05-29 21:35:00,74.9,63.6,30.08,SE,134,0.0,0.0,68,0.00,FEW,,0.00,WeatherDisplay:10.37,2013-05-30 01:35:00,
2013-05-29 21:40:00,74.7,63.5,30.08,SE,134,0.0,0.0,68,0.00,FEW,,0.00,WeatherDisplay:10.37,2013-05-30 01:40:00,
2013-05-29 21:45:00,74.7,63.4,30.09,SE,134,0.0,0.0,68,0.00,FEW,,0.00,WeatherDisplay:10.37,2013-05-30 01:45:00,
2013-05-29 21:50:00,74.6,63.3,30.09,SE,134,0.0,2.0,68,0.00,FEW,,0.00,WeatherDisplay:10.37,2013-05-30 01:50:00,
2013-05-29 21:55:00,74.5,63.7,30.09,SE,134,0.0,0.0,69,0.00,FEW,,0.00,WeatherDisplay:10.37,2013-05-30 01:55:00,
2013-05-29 22:00:00,74.4,63.6,30.09,SE,134,0.0,0.0,69,0.00,FEW,,0.00,WeatherDisplay:10.37,2013-05-30 02:00:00,
2013-05-29 22:05:00,74.3,63.5,30.09,SE,134,0.0,1.0,69,0.00,FEW,,0.00,WeatherDisplay:10.37,2013-05-30 02:05:00,
2013-05-29 22:10:00,74.2,63.3,30.09,SE,134,0.0,0.0,69,0.00,FEW,,0.00,WeatherDisplay:10.37,2013-05-30 02:10:00,
2013-05-29 22:16:00,74.0,63.6,30.09,SE,134,0.0,0.0,70,0.00,FEW,,0.00,WeatherDisplay:10.37,2013-05-30 02:16:00,
2013-05-29 22:21:00,73.9,63.5,30.10,SE,134,0.0,0.0,70,0.00,FEW,,0.00,WeatherDisplay:10.37,2013-05-30 02:21:00,
2013-05-29 22:26:00,73.8,63.4,30.10,SE,134,0.0,0.0,70,0.00,FEW,,0.00,WeatherDisplay:10.37,2013-05-30 02:26:00,
2013-05-29 22:31:00,73.7,63.7,30.10,SE,134,0.0,0.0,71,0.00,FEW,,0.00,WeatherDisplay:10.37,2013-05-30 02:31:00,
2013-05-29 22:36:00,73.6,63.6,30.10,SE,134,0.0,0.0,71,0.00,FEW,,0.00,WeatherDisplay:10.37,2013-05-30 02:36:00,
2013-05-29 22:42:00,73.3,63.7,30.10,SE,134,0.0,0.0,72,0.00,FEW,,0.00,WeatherDisplay:10.37,2013-05-30 02:42:00,
2013-05-29 22:47:00,73.0,63.4,30.10,SE,134,0.0,1.0,72,0.00,FEW,,0.00,WeatherDisplay:10.37,2013-05-30 02:47:00,
2013-05-29 22:52:00,72.8,63.6,30.10,SE,134,0.0,1.0,73,0.00,FEW,,0.00,WeatherDisplay:10.37,2013-05-30 02:52:00,
2013-05-29 22:57:00,72.6,63.5,30.10,SE,134,0.0,0.0,73,0.00,FEW,,0.00,WeatherDisplay:10.37,2013-05-30 02:57:00,
2013-05-29 23:05:00,72.4,63.6,30.10,SE,134,0.0,0.0,74,0.00,FEW,,0.00,WeatherDisplay:10.37,2013-05-30 03:05:00,
2013-05-29 23:10:00,72.2,63.5,30.09,SE,134,0.0,0.0,74,0.00,FEW,,0.00,WeatherDisplay:10.37,2013-05-30 03:10:00,
2013-05-29 23:16:00,72.1,63.4,30.09,SE,134,0.0,0.0,74,0.00,FEW,,0.00,WeatherDisplay:10.37,2013-05-30 03:16:00,
2013-05-29 23:21:00,72.0,63.6,30.09,SE,134,0.0,0.0,75,0.00,FEW,,0.00,WeatherDisplay:10.37,2013-05-30 03:21:00,
2013-05-29 23:26:00,71.9,63.5,30.09,SE,134,0.0,1.0,75,0.00,FEW,,0.00,WeatherDisplay:10.37,2013-05-30 03:26:00,
2013-05-29 23:31:00,71.9,63.5,30.09,SE,137,0.0,1.0,75,0.00,FEW,,0.00,WeatherDisplay:10.37,2013-05-30 03:31:00,
2013-05-29 23:36:00,71.9,63.5,30.10,SE,144,0.0,0.0,75,0.00,FEW,,0.00,WeatherDisplay:10.37,2013-05-30 03:36:00,
2013-05-29 23:41:00,72.0,63.6,30.10,SE,145,0.0,1.0,75,0.00,FEW,,0.00,WeatherDisplay:10.37,2013-05-30 03:41:00,
2013-05-29 23:46:00,72.0,63.6,30.10,SE,143,0.0,0.0,75,0.00,FEW,,0.00,WeatherDisplay:10.37,2013-05-30 03:46:00,
2013-05-29 23:51:00,71.9,63.6,30.10,SE,142,0.0,0.0,75,0.00,FEW,,0.00,WeatherDisplay:10.37,2013-05-30 03:51:00,
2013-05-29 23:56:00,71.9,63.5,30.10,SE,142,0.0,0.0,75,0.00,FEW,,0.00,WeatherDisplay:10.37,2013-05-30 03:56:00,